QPF
0.00 0.00 0.00 0.00 0.00 0.00 0.00 0.00 0.01 0.00 0.00 0.00 0.00 0.00 0.00 0.00 0.00 0.01 0.03 0.04 0.07 0.09 0.09 0.10 0.10 0.09 0.10 0.09 0.06 0.02 0.00 0.00 0.00 0.00 0.00 0.00 0.00 0.00 0.00 0.00 0.00 0.00 0.00 0.00
0.00 0.00 0.00 0.00 0.00 0.00 0.00 0.00 0.00 0.00 0.00 0.00 0.00 0.00 0.00 0.00 0.00 0.02 0.03 0.06 0.08 0.08 0.07 0.08 0.09 0.09 0.07 0.04 0.01 0.00 0.00 0.00 0.00 0.00 0.00 0.00 0.00 0.00 0.00 0.00 0.00 0.00 0.00 0.00
0.00 0.00 0.00 0.00 0.00 0.00 0.00 0.00 0.00 0.00 0.00 0.00 0.00 0.00 0.00 0.00 0.01 0.03 0.05 0.07 0.08 0.08 0.09 0.09 0.08 0.05 0.03 0.01 0.00 0.00 0.00 0.00 0.00 0.00 0.00 0.00 0.00 0.00 0.00 0.00 0.00 0.00 0.00 0.00
0.00 0.00 0.00 0.00 0.00 0.00 0.00 0.00 0.00 0.00 0.00 0.00 0.00 0.01 0.01 0.02 0.02 0.05 0.07 0.09 0.09 0.09 0.08 0.06 0.03 0.01 0.00 0.00 0.00 0.00 0.00 0.00 0.00 0.00 0.00 0.00 0.00 0.00 0.00 0.00 0.00 0.00 0.00 0.00
0.00 0.00 0.00 0.00 0.00 0.00 0.00 0.00 0.00 0.00 0.00 0.00 0.00 0.00 0.00 0.00 0.01 0.02 0.04 0.06 0.06 0.05 0.03 0.01 0.00 0.00 0.00 0.00 0.00 0.00 0.00 0.00 0.00 0.00 0.00 0.00 0.00 0.00 0.00 0.00 0.00 0.00 0.00 0.00
0.00 0.00 0.00 0.00 0.00 0.00 0.00 0.00 0.00 0.00 0.00 0.00 0.00 0.00 0.00 0.00 0.01 0.04 0.04 0.03 0.03 0.02 0.01 0.00 0.00 0.00 0.00 0.00 0.00 0.00 0.00 0.00 0.00 0.00 0.00 0.00 0.00 0.00 0.00 0.00 0.00 0.00 0.00 0.00
0.00 0.00 0.00 0.00 0.00 0.00 0.00 0.00 0.00 0.00 0.00 0.00 0.00 0.00 0.00 0.00 0.01 0.02 0.03 0.02 0.01 0.00 0.00 0.00 0.00 0.00 0.00 0.00 0.00 0.00 0.00 0.00 0.00 0.00 0.00 0.00 0.00 0.00 0.00 0.00 0.00 0.00 0.00 0.00
0.00 0.00 0.00 0.00 0.00 0.00 0.00 0.00 0.00 0.00 0.00 0.00 0.00 0.00 0.00 0.02 0.02 0.02 0.01 0.00 0.00 0.00 0.00 0.00 0.00 0.00 0.00 0.00 0.00 0.00 0.00 0.00 0.00 0.00 0.00 0.00 0.00 0.00 0.00 0.00 0.00 0.00 0.00 0.00
0.00 0.00 0.00 0.00 0.00 0.00 0.00 0.00 0.00 0.00 0.00 0.00 0.00 0.00 0.00 0.01 0.01 0.00 0.00 0.00 0.00 0.00 0.00 0.00 0.00 0.00 0.00 0.00 0.00 0.00 0.00 0.00 0.00 0.00 0.00 0.00 0.00 0.00 0.00 0.00 0.00 0.00 0.00 0.00
0.00 0.00 0.00 0.00 0.00 0.00 0.00 0.00 0.00 0.00 0.00 0.00 0.00 0.00 0.00 0.00 0.00 0.00 0.00 0.00 0.00 0.00 0.00 0.00 0.00 0.00 0.00 0.00 0.00 0.00 0.00 0.00 0.00 0.00 0.00 0.00 0.00 0.00 0.00 0.00 0.00 0.00 0.00 0.00
0.00 0.00 0.00 0.00 0.00 0.00 0.00 0.00 0.00 0.00 0.00 0.00 0.00 0.00 0.00 0.00 0.00 0.00 0.00 0.00 0.00 0.00 0.00 0.00 0.00 0.00 0.00 0.00 0.00 0.00 0.00 0.00 0.00 0.00 0.00 0.00 0.00 0.00 0.00 0.00 0.00 0.00 0.00 0.00
0.00 0.00 0.00 0.00 0.00 0.00 0.00 0.00 0.00 0.00 0.00 0.00 0.00 0.00 0.00 0.00 0.00 0.00 0.00 0.00 0.00 0.00 0.00 0.00 0.00 0.00 0.00 0.00 0.00 0.00 0.00 0.00 0.00 0.00 0.00 0.00 0.00 0.00 0.00 0.00 0.00 0.00 0.01 0.01
0.00 0.00 0.00 0.00 0.00 0.00 0.00 0.00 0.00 0.00 0.00 0.00 0.00 0.00 0.00 0.00 0.00 0.00 0.00 0.00 0.00 0.00 0.00 0.00 0.00 0.00 0.00 0.00 0.00 0.00 0.00 0.00 0.00 0.00 0.00 0.00 0.00 0.00 0.00 0.00 0.00 0.00 0.00 0.00
0.00 0.00 0.00 0.00 0.00 0.00 0.00 0.00 0.01 0.01 0.00 0.00 0.00 0.00 0.00 0.00 0.00 0.00 0.00 0.00 0.00 0.00 0.00 0.00 0.00 0.00 0.00 0.00 0.00 0.00 0.00 0.00 0.00 0.00 0.00 0.00 0.00 0.00 0.00 0.00 0.00 0.00 0.00 0.00
0.00 0.00 0.00 0.00 0.00 0.00 0.00 0.02 0.04 0.04 0.04 0.04 0.02 0.01 0.00 0.00 0.00 0.00 0.00 0.00 0.00 0.00 0.00 0.00 0.00 0.00 0.00 0.00 0.00 0.00 0.00 0.00 0.00 0.00 0.00 0.00 0.00 0.00 0.00 0.00 0.00 0.00 0.00 0.00
0.00 0.00 0.00 0.00 0.00 0.00 0.00 0.01 0.04 0.07 0.11 0.13 0.13 0.09 0.05 0.02 0.01 0.01 0.00 0.00 0.00 0.00 0.00 0.00 0.00 0.00 0.00 0.00 0.00 0.00 0.00 0.00 0.00 0.00 0.00 0.00 0.00 0.00 0.00 0.00 0.00 0.00 0.00 0.00
0.00 0.00 0.00 0.00 0.00 0.01 0.01 0.01 0.01 0.02 0.06 0.09 0.11 0.11 0.10 0.09 0.08 0.06 0.03 0.01 0.00 0.00 0.00 0.00 0.00 0.00 0.00 0.00 0.00 0.00 0.00 0.00 0.00 0.00 0.00 0.00 0.00 0.00 0.00 0.00 0.00 0.00 0.00 0.00
0.01 0.02 0.01 0.01 0.01 0.01 0.01 0.01 0.02 0.02 0.04 0.06 0.07 0.08 0.09 0.09 0.08 0.06 0.04 0.02 0.01 0.00 0.00 0.00 0.00 0.00 0.00 0.00 0.00 0.00 0.00 0.00 0.00 0.00 0.00 0.00 0.00 0.01 0.01 0.00 0.00 0.00 0.00 0.00
0.00 0.01 0.01 0.01 0.01 0.01 0.01 0.01 0.01 0.01 0.01 0.02 0.02 0.03 0.03 0.03 0.03 0.03 0.03 0.03 0.02 0.02 0.01 0.01 0.01 0.01 0.00 0.00 0.00 0.00 0.00 0.00 0.00 0.00 0.00 0.00 0.00 0.00 0.00 0.00 0.00 0.00 0.00 0.00
0.01 0.01 0.02 0.02 0.02 0.02 0.02 0.02 0.01 0.01 0.01 0.00 0.00 0.00 0.01 0.01 0.01 0.01 0.01 0.01 0.01 0.01 0.01 0.01 0.02 0.00 0.00 0.00 0.00 0.01 0.01 0.00 0.00 0.00 0.00 0.00 0.00 0.00 0.00 0.00 0.00 0.00 0.00 0.00
0.01 0.02 0.02 0.02 0.02 0.02 0.02 0.02 0.01 0.01 0.01 0.01 0.00 0.00 0.00 0.00 0.00 0.00 0.00 0.00 0.00 0.00 0.01 0.00 0.00 0.00 0.00 0.00 0.02 0.01 0.00 0.00 0.00 0.00 0.00 0.00 0.00 0.00 0.00 0.00 0.00 0.00 0.00 0.00
0.00 0.00 0.00 0.00 0.00 0.00 0.00 0.00 0.00 0.00 0.00 0.00 0.00 0.00 0.00 0.00 0.00 0.00 0.00 0.00 0.00 0.00 0.00 0.00 0.00 0.00 0.00 0.05 0.01 0.00 0.00 0.00 0.00 0.00 0.00 0.00 0.00 0.00 0.00 0.00 0.00 0.00 0.00 0.00
0.00 0.00 0.00 0.00 0.00 0.00 0.00 0.00 0.00 0.00 0.00 0.00 0.00 0.00 0.00 0.00 0.00 0.00 0.00 0.00 0.00 0.00 0.00 0.00 0.00 0.00 0.01 0.03 0.00 0.00 0.00 0.00 0.00 0.00 0.00 0.00 0.00 0.00 0.00 0.00 0.00 0.01 0.01 0.01
0.00 0.00 0.00 0.00 0.00 0.00 0.00 0.00 0.00 0.00 0.00 0.00 0.00 0.00 0.00 0.00 0.00 0.00 0.00 0.00 0.00 0.00 0.00 0.00 0.00 0.01 0.01 0.01 0.00 0.00 0.00 0.00 0.00 0.00 0.00 0.00 0.00 0.00 0.00 0.00 0.00 0.00 0.01 0.01
0.00 0.00 0.00 0.00 0.00 0.00 0.00 0.00 0.00 0.00 0.00 0.00 0.00 0.00 0.00 0.00 0.00 0.00 0.00 0.00 0.00 0.00 0.00 0.00 0.00 0.00 0.00 0.00 0.00 0.00 0.00 0.00 0.00 0.00 0.00 0.00 0.00 0.00 0.00 0.00 0.00 0.00 0.01 0.01
0.00 0.00 0.00 0.00 0.00 0.00 0.00 0.00 0.00 0.00 0.00 0.00 0.00 0.00 0.00 0.00 0.00 0.00 0.00 0.00 0.00 0.00 0.00 0.00 0.00 0.00 0.00 0.00 0.00 0.00 0.00 0.00 0.00 0.00 0.00 0.00 0.00 0.00 0.00 0.00 0.00 0.00 0.00 0.01
0.00 0.00 0.00 0.00 0.00 0.00 0.00 0.00 0.01 0.00 0.00 0.00 0.00 0.00 0.00 0.00 0.00 0.00 0.00 0.00 0.00 0.00 0.00 0.00 0.00 0.00 0.00 0.00 0.00 0.00 0.00 0.00 0.00 0.00 0.00 0.00 0.00 0.00 0.00 0.00 0.01 0.01 0.01 0.01
MSLP
1019.11 1019.28 1019.78 1020.17 1020.58 1020.87 1020.65 1019.46 1019.02 1016.79 1017.56 1018.42 1019.00 1019.53 1019.47 1019.47 1020.19 1020.69 1021.16 1021.87 1022.31 1022.58 1023.32 1023.55 1024.24 1024.60 1025.17 1025.80 1026.34 1026.79 1027.08 1027.19 1027.46 1027.79 1027.94 1027.98 1028.19 1028.32 1028.35 1028.25 1028.24 1028.30 1028.28 1028.22
1019.31 1019.04 1019.50 1019.86 1020.11 1020.09 1020.09 1019.75 1019.15 1018.83 1018.58 1019.49 1019.96 1020.10 1020.00 1019.87 1020.36 1020.82 1021.30 1021.77 1022.46 1023.05 1023.59 1023.99 1024.58 1025.18 1025.70 1026.37 1026.87 1027.17 1027.27 1027.42 1027.70 1027.83 1027.96 1028.10 1028.16 1028.36 1028.29 1028.27 1028.38 1028.31 1028.18 1028.21
1019.26 1019.39 1019.66 1019.51 1019.49 1019.77 1019.87 1019.87 1019.92 1019.86 1019.87 1020.16 1019.99 1020.22 1020.36 1020.25 1020.52 1020.90 1021.37 1021.99 1022.78 1023.45 1024.03 1024.82 1025.08 1025.82 1026.39 1026.93 1027.28 1027.45 1027.59 1027.67 1027.83 1027.97 1028.04 1028.17 1028.29 1028.30 1028.29 1028.26 1028.27 1028.18 1028.04 1028.07
1020.31 1020.08 1019.63 1019.29 1020.01 1020.32 1020.38 1020.22 1020.53 1020.73 1020.65 1020.86 1021.00 1021.08 1021.03 1020.97 1020.95 1021.44 1021.80 1022.44 1023.26 1023.97 1024.62 1025.25 1025.64 1026.28 1026.84 1027.22 1027.30 1027.36 1027.59 1027.71 1027.90 1028.06 1028.08 1028.18 1028.22 1028.12 1028.11 1028.22 1028.10 1027.95 1027.94 1027.79
1020.91 1020.01 1018.92 1019.08 1019.92 1020.26 1020.33 1020.26 1020.40 1020.57 1020.91 1021.19 1021.39 1021.29 1021.27 1021.54 1021.66 1021.89 1022.30 1022.93 1023.68 1024.48 1025.16 1025.78 1026.12 1026.62 1026.96 1027.30 1027.46 1027.40 1027.46 1027.64 1027.82 1028.01 1028.02 1028.08 1028.12 1028.05 1027.95 1027.84 1027.70 1027.68 1027.59 1027.52
1021.59 1020.70 1019.19 1018.84 1019.59 1020.27 1020.71 1020.16 1020.14 1020.73 1020.90 1021.15 1021.51 1021.21 1020.60 1021.64 1022.04 1022.55 1023.06 1023.53 1024.05 1024.74 1025.67 1026.39 1026.75 1026.93 1027.12 1027.27 1027.41 1027.31 1027.45 1027.73 1027.91 1027.86 1028.02 1027.90 1027.85 1027.77 1027.59 1027.59 1027.55 1027.46 1027.50 1027.31
1021.36 1020.74 1019.38 1019.05 1019.97 1020.60 1020.43 1020.05 1019.93 1020.29 1020.45 1021.00 1021.29 1020.93 1021.22 1021.86 1022.46 1022.95 1023.44 1024.03 1024.59 1025.41 1026.22 1027.04 1027.39 1027.43 1027.34 1027.40 1027.46 1027.65 1027.73 1027.63 1027.62 1027.78 1027.85 1027.61 1027.51 1027.56 1027.48 1027.40 1027.40 1027.40 1027.34 1026.93
1021.66 1020.97 1019.72 1019.44 1020.17 1020.25 1019.51 1019.22 1019.67 1019.92 1020.26 1020.63 1020.78 1021.20 1021.51 1022.06 1022.75 1023.53 1024.34 1025.10 1025.67 1026.34 1027.28 1027.99 1028.14 1027.80 1027.61 1027.55 1027.70 1027.87 1027.84 1027.71 1027.58 1027.43 1027.38 1027.23 1027.30 1027.26 1027.23 1027.27 1027.17 1027.05 1026.80 1026.40
1020.88 1019.05 1018.92 1019.45 1019.10 1019.30 1019.53 1019.67 1019.68 1019.75 1019.67 1020.22 1020.53 1020.97 1021.43 1022.09 1023.03 1023.86 1024.70 1025.76 1026.60 1027.05 1027.61 1027.98 1028.21 1028.30 1028.14 1028.06 1028.10 1027.97 1027.75 1027.52 1027.39 1027.33 1027.26 1027.21 1027.21 1027.16 1027.08 1026.95 1026.80 1026.54 1026.25 1025.89
1020.73 1018.73 1019.21 1019.44 1019.53 1019.58 1019.62 1019.58 1019.52 1019.62 1019.66 1019.87 1020.08 1020.54 1021.21 1022.14 1023.16 1024.15 1025.19 1025.94 1026.65 1027.35 1027.76 1028.18 1028.48 1028.58 1028.52 1028.41 1028.16 1028.06 1027.79 1027.57 1027.42 1027.35 1027.21 1027.10 1027.10 1026.95 1026.75 1026.47 1026.27 1026.09 1025.87 1025.54
1020.33 1019.80 1019.60 1019.46 1019.62 1019.64 1019.54 1019.60 1019.54 1019.31 1019.35 1019.64 1020.06 1020.54 1021.18 1022.08 1023.16 1024.34 1025.43 1026.45 1027.22 1027.66 1027.97 1028.25 1028.68 1028.82 1028.77 1028.64 1028.43 1028.04 1027.76 1027.65 1027.41 1027.22 1027.17 1026.97 1026.76 1026.51 1026.33 1026.15 1026.04 1025.93 1025.55 1025.19
1020.42 1020.45 1020.48 1020.17 1020.16 1020.15 1019.95 1019.57 1019.28 1019.24 1019.40 1019.77 1020.33 1020.73 1021.29 1021.99 1023.12 1024.45 1025.63 1026.74 1027.59 1028.10 1028.47 1028.71 1028.72 1028.64 1028.62 1028.43 1028.40 1028.22 1027.78 1027.44 1027.22 1026.97 1026.82 1026.64 1026.38 1026.05 1025.75 1025.62 1025.34 1024.95 1024.55 1024.25
1022.07 1021.83 1021.50 1020.90 1020.67 1020.39 1020.31 1019.72 1019.27 1019.31 1019.50 1020.21 1021.08 1021.38 1021.86 1022.78 1023.56 1024.54 1026.01 1026.99 1027.62 1027.98 1028.36 1028.58 1028.50 1028.43 1028.52 1028.41 1028.11 1027.92 1027.85 1027.61 1027.24 1026.89 1026.60 1026.36 1026.12 1025.84 1025.34 1024.78 1024.60 1024.35 1024.01 1023.69
1023.62 1023.29 1022.09 1021.46 1021.44 1021.30 1020.88 1020.31 1019.96 1020.18 1020.37 1020.93 1021.63 1022.30 1022.75 1023.41 1024.31 1025.26 1026.14 1026.84 1027.39 1027.87 1028.20 1028.27 1028.27 1028.08 1027.98 1028.10 1027.98 1027.78 1027.52 1027.17 1026.76 1026.62 1026.48 1026.15 1025.84 1025.54 1025.20 1024.77 1024.19 1023.73 1023.40 1023.19
1024.97 1024.84 1023.96 1023.28 1022.63 1022.11 1021.73 1021.44 1021.38 1021.89 1022.31 1022.57 1023.10 1023.48 1023.72 1024.22 1025.16 1026.32 1027.01 1027.20 1027.42 1027.72 1027.83 1027.93 1027.94 1027.77 1027.80 1027.89 1027.95 1027.75 1027.34 1026.82 1026.51 1026.18 1025.93 1025.71 1025.34 1024.91 1024.55 1024.15 1023.70 1023.26 1022.89 1022.60
1026.55 1025.50 1024.85 1024.16 1023.48 1023.51 1023.16 1022.81 1022.77 1023.24 1023.50 1024.06 1024.54 1024.96 1025.09 1025.37 1025.86 1026.48 1027.17 1027.60 1027.62 1027.43 1027.63 1027.72 1027.60 1027.45 1027.56 1027.65 1027.66 1027.45 1027.19 1026.74 1026.05 1025.51 1025.15 1024.98 1024.68 1024.38 1024.01 1023.64 1023.16 1022.79 1022.43 1022.07
1027.42 1026.45 1026.06 1025.50 1025.31 1025.29 1025.23 1025.09 1024.86 1024.83 1025.01 1025.30 1025.68 1025.84 1025.85 1026.01 1026.34 1026.82 1027.23 1027.44 1027.61 1027.61 1027.38 1027.32 1027.26 1027.14 1027.05 1027.08 1027.00 1026.76 1026.54 1026.31 1026.01 1025.34 1024.93 1024.65 1024.28 1023.96 1023.66 1023.25 1022.80 1022.39 1022.02 1021.75
1028.83 1028.33 1027.79 1027.32 1027.02 1026.92 1026.73 1026.63 1026.56 1026.53 1026.57 1026.62 1026.61 1026.59 1026.64 1026.81 1027.05 1027.24 1027.39 1027.31 1027.28 1027.10 1026.85 1026.93 1026.87 1026.56 1026.56 1026.55 1026.42 1026.25 1026.05 1025.69 1025.49 1025.21 1024.76 1024.35 1024.03 1023.74 1023.36 1022.91 1022.54 1022.15 1021.58 1021.22
1029.53 1029.03 1028.63 1028.34 1028.22 1028.08 1027.97 1027.85 1027.77 1027.77 1027.60 1027.40 1027.22 1027.19 1027.29 1027.45 1027.51 1027.49 1027.38 1027.15 1026.96 1026.84 1026.82 1026.79 1026.49 1026.15 1026.15 1026.01 1025.64 1025.37 1025.09 1024.97 1024.86 1024.71 1024.51 1024.09 1023.87 1023.61 1023.19 1022.94 1022.50 1022.01 1021.36 1020.69
1030.21 1029.76 1029.39 1029.12 1028.94 1028.86 1028.72 1028.63 1028.42 1028.35 1028.30 1028.02 1027.80 1027.67 1027.62 1027.66 1027.57 1027.49 1027.35 1027.14 1027.08 1027.08 1026.80 1026.37 1026.04 1026.03 1025.86 1025.59 1025.20 1024.83 1024.41 1024.73 1024.91 1024.86 1024.64 1024.22 1023.67 1023.38 1023.06 1022.50 1021.97 1021.51 1021.03 1020.34
1030.91 1030.56 1030.15 1029.83 1029.61 1029.54 1029.42 1029.23 1028.93 1028.70 1028.55 1028.48 1028.20 1028.05 1027.98 1027.85 1027.70 1027.55 1027.28 1027.09 1027.05 1026.98 1026.46 1026.13 1025.96 1025.56 1025.41 1024.95 1024.65 1024.86 1025.00 1024.97 1024.92 1024.75 1024.48 1024.08 1023.58 1023.09 1022.66 1022.18 1021.60 1020.97 1020.39 1019.77
1031.58 1031.25 1030.87 1030.41 1030.22 1029.94 1029.85 1029.67 1029.48 1029.26 1029.12 1028.81 1028.57 1028.44 1028.29 1027.96 1027.85 1027.69 1027.53 1027.43 1027.15 1026.65 1026.39 1025.97 1025.73 1025.53 1024.77 1024.33 1024.83 1024.99 1025.00 1024.87 1024.66 1024.45 1024.11 1023.69 1023.17 1022.62 1022.12 1021.59 1021.02 1020.38 1019.72 1019.08
1032.31 1031.94 1031.48 1031.04 1030.51 1030.15 1030.07 1029.96 1029.82 1029.49 1029.37 1029.11 1028.80 1028.79 1028.58 1028.29 1028.01 1027.78 1027.54 1027.50 1027.03 1026.76 1026.03 1025.86 1025.65 1024.82 1024.32 1024.76 1024.94 1024.93 1024.83 1024.70 1024.42 1024.09 1023.75 1023.34 1022.79 1022.25 1021.57 1020.90 1020.22 1019.61 1018.88 1018.11
1032.72 1032.39 1031.91 1031.34 1030.88 1030.47 1030.24 1030.11 1030.00 1029.66 1029.50 1029.27 1029.04 1028.96 1028.79 1028.33 1027.99 1027.82 1027.71 1027.40 1027.07 1026.54 1026.09 1026.09 1025.47 1024.80 1024.30 1024.83 1024.84 1024.82 1024.68 1024.36 1024.04 1023.72 1023.30 1022.66 1022.10 1021.79 1021.18 1020.42 1019.91 1019.24 1018.39 1017.42
1032.90 1032.60 1032.12 1031.55 1030.98 1030.43 1030.34 1030.17 1029.95 1029.56 1029.37 1029.13 1028.98 1028.82 1028.63 1028.29 1028.08 1027.56 1027.44 1027.27 1026.92 1026.39 1026.22 1025.81 1025.38 1025.11 1025.08 1025.00 1024.90 1024.65 1024.34 1023.91 1023.64 1023.10 1022.60 1022.38 1021.77 1021.20 1020.63 1020.04 1019.35 1018.63 1017.84 1016.95
1032.84 1032.51 1032.02 1031.64 1031.08 1030.67 1030.37 1030.17 1029.76 1029.45 1029.19 1028.89 1028.79 1028.49 1028.20 1027.96 1027.70 1027.24 1027.01 1026.74 1026.39 1026.19 1025.93 1025.68 1025.44 1025.10 1024.93 1024.84 1024.49 1024.12 1023.80 1023.49 1023.07 1022.76 1022.23 1021.63 1021.09 1020.66 1020.05 1019.39 1018.67 1017.95 1017.25 1016.46
1032.64 1032.15 1031.86 1031.40 1031.13 1030.81 1030.53 1029.83 1029.65 1029.49 1029.25 1028.98 1028.51 1028.04 1027.56 1027.39 1027.18 1026.74 1026.45 1026.28 1026.08 1025.84 1025.55 1025.23 1024.96 1024.78 1024.52 1024.31 1023.89 1023.73 1023.36 1022.98 1022.53 1022.01 1021.42 1021.12 1020.68 1020.09 1019.41 1018.75 1018.03 1017.30 1016.54 1015.74
Thickness
5506 5498 5484 5481 5479 5462 5449 5474 5462 5505 5483 5476 5459 5448 5445 5440 5429 5421 5414 5406 5402 5399 5392 5390 5383 5379 5372 5366 5362 5358 5354 5352 5350 5347 5345 5344 5341 5339 5337 5335 5333 5331 5329 5328
5471 5485 5472 5457 5461 5453 5452 5450 5451 5452 5451 5417 5419 5417 5419 5419 5411 5405 5398 5393 5386 5380 5374 5370 5364 5358 5352 5346 5341 5338 5337 5335 5332 5330 5328 5326 5324 5321 5320 5318 5315 5314 5313 5310
5466 5460 5454 5456 5446 5441 5440 5429 5425 5429 5421 5406 5408 5405 5400 5399 5391 5386 5380 5374 5366 5360 5355 5347 5342 5336 5330 5325 5322 5320 5317 5317 5315 5313 5311 5309 5306 5304 5303 5301 5299 5297 5295 5292
5437 5436 5437 5437 5401 5396 5403 5397 5386 5387 5390 5379 5375 5370 5369 5367 5372 5366 5360 5353 5345 5338 5332 5326 5321 5316 5311 5307 5306 5305 5303 5301 5298 5296 5294 5292 5290 5288 5286 5284 5282 5279 5275 5274
5419 5430 5448 5440 5401 5394 5394 5405 5378 5375 5362 5357 5351 5354 5353 5344 5342 5342 5337 5330 5325 5318 5314 5307 5304 5298 5296 5293 5290 5291 5289 5286 5283 5279 5278 5275 5271 5270 5269 5266 5263 5261 5258 5256
5391 5395 5407 5415 5390 5374 5365 5380 5363 5350 5351 5345 5337 5350 5363 5326 5322 5317 5314 5311 5309 5304 5295 5288 5285 5283 5282 5280 5277 5276 5273 5268 5266 5263 5259 5257 5254 5251 5250 5247 5244 5243 5240 5240
5384 5375 5391 5388 5365 5354 5362 5370 5353 5346 5341 5323 5327 5335 5322 5313 5307 5304 5300 5296 5290 5284 5278 5270 5264 5263 5266 5263 5259 5254 5250 5250 5248 5245 5242 5241 5238 5235 5232 5230 5228 5227 5227 5230
5346 5338 5344 5361 5347 5348 5357 5354 5344 5336 5328 5318 5318 5307 5305 5300 5293 5284 5275 5269 5265 5260 5252 5243 5243 5245 5247 5245 5241 5238 5235 5234 5232 5231 5229 5226 5223 5221 5220 5218 5218 5218 5220 5222
5359 5375 5363 5345 5349 5339 5333 5328 5329 5322 5321 5307 5304 5300 5295 5288 5276 5270 5263 5251 5242 5242 5238 5233 5231 5230 5232 5230 5225 5223 5222 5221 5219 5217 5215 5213 5211 5209 5209 5209 5209 5211 5212 5214
5327 5367 5344 5329 5324 5319 5316 5313 5312 5307 5305 5302 5299 5295 5288 5277 5263 5254 5243 5237 5232 5228 5227 5224 5218 5216 5214 5212 5211 5209 5208 5207 5206 5204 5204 5202 5200 5199 5199 5201 5201 5201 5202 5204
5324 5323 5315 5316 5307 5304 5303 5298 5294 5296 5295 5291 5287 5283 5275 5267 5254 5242 5233 5223 5217 5217 5214 5213 5206 5203 5200 5198 5198 5199 5198 5195 5195 5194 5192 5192 5191 5192 5192 5191 5190 5189 5190 5193
5317 5306 5296 5298 5292 5286 5285 5285 5287 5284 5281 5276 5270 5266 5260 5254 5244 5230 5220 5211 5205 5201 5197 5196 5193 5193 5191 5189 5187 5187 5189 5189 5187 5186 5184 5183 5183 5183 5184 5184 5183 5184 5186 5187
5283 5274 5273 5274 5272 5269 5267 5270 5273 5272 5269 5258 5246 5245 5243 5233 5226 5219 5206 5198 5193 5191 5188 5183 5184 5184 5182 5181 5180 5179 5177 5177 5177 5176 5176 5175 5175 5175 5175 5177 5177 5177 5178 5178
5248 5244 5260 5259 5255 5246 5248 5252 5254 5247 5243 5239 5230 5224 5221 5216 5212 5203 5196 5190 5184 5180 5178 5176 5175 5177 5176 5173 5171 5169 5168 5169 5170 5169 5167 5167 5168 5167 5167 5168 5170 5170 5169 5168
5218 5211 5222 5226 5228 5229 5229 5229 5230 5222 5215 5211 5207 5206 5205 5202 5194 5183 5177 5176 5175 5171 5169 5166 5164 5167 5166 5162 5159 5158 5159 5161 5162 5162 5162 5161 5162 5163 5163 5164 5165 5166 5165 5164
5184 5196 5203 5205 5209 5204 5204 5205 5210 5202 5197 5192 5187 5181 5180 5179 5176 5171 5165 5162 5164 5167 5158 5154 5154 5157 5154 5151 5148 5147 5147 5149 5153 5156 5157 5155 5156 5156 5157 5158 5160 5160 5159 5159
5180 5184 5183 5185 5183 5180 5177 5177 5177 5176 5173 5170 5166 5164 5165 5164 5161 5158 5154 5149 5146 5144 5144 5143 5142 5142 5142 5140 5139 5139 5138 5137 5138 5143 5144 5144 5145 5145 5145 5147 5149 5150 5150 5149
5156 5157 5159 5160 5161 5158 5157 5155 5153 5152 5151 5150 5149 5148 5147 5143 5140 5138 5136 5135 5133 5133 5133 5131 5129 5131 5130 5127 5126 5126 5125 5127 5126 5126 5128 5130 5130 5130 5132 5134 5134 5135 5139 5139
5141 5142 5142 5142 5140 5139 5137 5135 5133 5132 5132 5132 5132 5131 5128 5125 5123 5122 5121 5120 5120 5119 5116 5114 5115 5117 5115 5113 5114 5115 5116 5115 5114 5113 5112 5113 5112 5113 5115 5115 5117 5118 5122 5126
5126 5126 5126 5124 5121 5118 5116 5115 5115 5114 5112 5112 5113 5111 5110 5107 5106 5105 5103 5102 5100 5097 5096 5098 5099 5097 5095 5095 5096 5098 5101 5097 5093 5091 5091 5093 5095 5095 5095 5097 5099 5101 5104 5108
5105 5104 5104 5103 5101 5097 5094 5093 5092 5093 5091 5090 5090 5089 5087 5086 5085 5083 5083 5082 5079 5075 5077 5078 5077 5077 5076 5076 5078 5075 5073 5071 5068 5069 5070 5070 5072 5074 5076 5078 5080 5082 5085 5088
5081 5080 5079 5081 5078 5077 5073 5071 5069 5068 5065 5064 5063 5062 5061 5061 5059 5057 5055 5053 5053 5052 5052 5054 5053 5051 5054 5054 5052 5049 5046 5045 5045 5045 5046 5048 5051 5054 5056 5057 5059 5062 5065 5068
5058 5056 5056 5054 5055 5054 5049 5046 5043 5042 5038 5036 5035 5032 5031 5030 5030 5029 5027 5023 5026 5024 5027 5027 5024 5030 5029 5026 5023 5020 5020 5019 5019 5021 5023 5025 5028 5029 5034 5037 5039 5042 5046 5050
5038 5036 5035 5035 5034 5032 5028 5024 5021 5019 5015 5012 5010 5007 5005 5005 5002 5000 4998 4996 4996 4996 4997 4994 4997 5000 5001 4996 4994 4993 4993 4994 4995 4996 4999 5004 5007 5008 5012 5017 5020 5023 5029 5036
5022 5019 5017 5016 5016 5016 5010 5005 5002 5000 4996 4993 4990 4986 4984 4982 4981 4980 4976 4973 4972 4973 4972 4971 4972 4972 4971 4970 4970 4971 4972 4974 4975 4980 4983 4985 4989 4993 4997 5002 5008 5013 5019 5027
5009 5006 5003 5000 5000 4997 4993 4988 4987 4984 4981 4978 4972 4969 4967 4964 4962 4961 4959 4956 4955 4953 4951 4950 4950 4952 4951 4950 4952 4954 4955 4956 4959 4962 4967 4973 4977 4981 4986 4991 4997 5003 5009 5017
4995 4995 4990 4987 4984 4980 4976 4978 4973 4969 4966 4963 4960 4958 4957 4952 4947 4946 4944 4941 4939 4937 4936 4936 4936 4936 4937 4936 4938 4939 4941 4944 4948 4952 4957 4960 4965 4971 4978 4984 4991 4998 5005 5013